Das Wetter in  D-61279 Heinzenberg / Taunus





Wetter Minimum- & Maximum-Werte im November 2011

Standort: Heinzenberg / Taunus - Höhe 297 m         8 24' 1" Ost 50 21' 51" Nord
(   3-stündige Aktualisierung    letzte Aktualisierung um 19:04 am 30.11.2011  )


Messgrösse

Minimum

Maximum

Durchschnitt

Temperatur West /
Luftfeuchte West
Anklicken für Monats-Diagramm

-5,3 C

07:04
16.11.2011

57 %

14:18
15.11.2011

17,2 C

16:00
06.11.2011

99 %

06:21
01.11.2011

Temp

4,2 C

Feuchte

91 %

Temperatur Ost /
Luftfeuchte Ost
Anklicken für Monats-Diagramm

-4,6 C

07:59
16.11.2011

--

--
--

17,0 C

13:45
06.11.2011

--

--
--

4,5 C

--

Luftdruck Anklicken für Monats-Diagramm

1004,7 hPa

03:49
04.11.2011

1036,0 hPa

08:31
24.11.2011

1022,7 hPa

Taupunkt

-6,2 C

07:04
16.11.2011

10,9 C

12:15
06.11.2011

2,7 C

Windchill
( gefühlte Temperatur )

-7,4 C

09:45
27.11.2011

17,2 C

16:00
06.11.2011

3,2 C

Windgeschwindigkeit /
Windrichtung
Anklicken für Monats-Diagramm

---

45,0 km/h / W-SW

17:00
27.11.2011

3,5 km/h
O-SO

Helligkeit /
Sonnenschein
Anklicken für Monats-Diagramm
Anklicken für Monats-Diagramm

Sonnenschein:

107:45 Stunden

Max: 7:46 Std am
14.11.2011

64,8 klux

12:13
03.11.2011

14,4 klux

Solarstrahlung Anklicken für Monats-Diagramm

---

443 W/m

12:13
03.11.2011

111 W/m

Regenmenge
    November 2011
Anklicken für Monats-Diagramm

Insgesamt 1,4 l/m

in 7:19 Stunden
an 7 Tagen

0,6 l/m

17:28
03.11.2011

Gesamtmenge

1,4 l/m

Regen-Tage
    November 2011
Anklicken für Monats-Diagramm

>   0 mm/Tag

>   2 mm/Tag

>   5 mm/Tag

> 10 mm/Tag

> 20 mm/Tag

7 Tage     
0 Tage     
0 Tage     
0 Tage     
0 Tage     

Eisige Tage November 2011 / 2010

Tmin ≤ -10C     

0 Tage

/

0 Tage

Eistage November 2011 / 2010

Tmax <     0C     

0 Tage

/

3 Tage

Frosttage November 2011 / 2010

Tmin ≤     0C     

14 Tage

/

6 Tage

Kalte Tage November 2011 / 2010

Tmax <   10C     

19 Tage

/

19 Tage

Warme Tage November 2011 / 2010

Tmax ≥   20C     

0 Tage

/

0 Tage

Sommertage November 2011 / 2010

Tmax ≥   25C     

0 Tage

/

0 Tage

Heisse Tage November 2011 / 2010

Tmax ≥   30C     

0 Tage

/

0 Tage


Monatsdiagramm November 2011

Die Kurven zeigen den Durchschnittswert des jeweiligen Tages an


Wetter-Monatsübersicht November 2011
Datum
  Temperatur
   Luftdruck
   Wind
  Regen
   Luftfeuchte
   Helligkeit

Sonnen-
schein


Temp.

Min.
Temp.

Max.
Temp.


Luftdruck

Min.
Luftdruck

Max.
Luftdruck

-Geschw.
Haupt-Richtg.

Max.
Wind

Menge /
Dauer


Feuchte

Min.
Feuchte

Max.
Feuchte


Helligkeit

Max.
Helligkeit

1.
November
7,5 C3,0 C
07:26
11,5 C
16:06
1017,5 hPa1016,4 hPa
06:11
1018,7 hPa
08:11
0,0 km/h
W-SW
6,6 km/h
14:11  
---
95 %89 %
16:26
99 %
06:21
7,8 klux18,9 klux
14:26
15 Min 
2.
November
8,4 C5,5 C
02:01
10,9 C
13:51
1015,2 hPa1010,8 hPa
22:48
1018,5 hPa
02:01
6,4 km/h
O-SO
31,1 km/h
16:01  
---
95 %89 %
15:01
99 %
02:46
10,4 klux29,0 klux
14:41
5 Min 
3.
November
9,8 C8,1 C
23:39
14,2 C
12:38
1008,1 hPa1005,5 hPa
20:23
1010,9 hPa
00:38
7,1 km/h
O-SO
26,2 km/h
08:43  
0,6 l/m
1:40 Stunden
84 %69 %
13:08
92 %
00:03
11,7 klux64,8 klux
12:13
35 Min 
4.
November
9,5 C7,1 C
06:44
13,7 C
14:39
1006,6 hPa1004,7 hPa
03:49
1007,9 hPa
08:04
5,3 km/h
O-SO
21,6 km/h
11:44  
0,2 l/m
50 Minuten
82 %69 %
14:09
90 %
00:49
19,3 klux52,5 klux
13:44
3:35 Std 
5.
November
9,4 C6,0 C
07:39
16,2 C
14:49
1007,7 hPa1005,8 hPa
03:19
1011,2 hPa
23:45
0,5 km/h
SO
10,6 km/h
01:54  
---
86 %66 %
14:09
96 %
08:24
19,4 klux45,4 klux
13:24
4:31 Std 
6.
November
8,4 C3,2 C
07:45
17,2 C
16:00
1013,7 hPa1011,2 hPa
00:00
1017,4 hPa
23:51
1,6 km/h
SO
12,5 km/h
12:25  
---
88 %61 %
16:05
99 %
10:10
24,0 klux47,5 klux
11:55
7:40 Std 
7.
November
7,4 C4,6 C
23:37
9,0 C
15:21
1017,5 hPa1016,3 hPa
01:31
1018,6 hPa
23:37
3,1 km/h
NO
17,2 km/h
12:46  
---
94 %89 %
15:21
97 %
01:56
4,1 klux10,1 klux
13:16
--- 
8.
November
4,9 C0,3 C
08:02
12,6 C
15:52
1019,4 hPa1017,6 hPa
15:52
1021,0 hPa
23:53
0,9 km/h
SO
11,6 km/h
13:22  
---
93 %74 %
16:02
99 %
02:12
19,9 klux41,0 klux
12:07
5:50 Std 
9.
November
3,6 C0,4 C
03:53
6,3 C
14:43
1023,1 hPa1021,0 hPa
00:03
1024,9 hPa
23:34
0,6 km/h
SO
10,6 km/h
18:13  
---
98 %96 %
00:03
99 %
06:18
5,4 klux10,7 klux
11:08
--- 
10.
November
4,6 C3,6 C
02:59
5,6 C
23:25
1024,0 hPa1023,6 hPa
23:25
1024,9 hPa
02:04
3,4 km/h
O-SO
21,3 km/h
23:15  
0,3 l/m
50 Minuten
99 %98 %
21:14
99 %
00:04
3,7 klux8,1 klux
10:39
--- 
11.
November
6,0 C2,4 C
23:56
8,3 C
14:10
1025,3 hPa1023,5 hPa
06:35
1028,2 hPa
23:56
10,3 km/h
O-SO
25,4 km/h
04:50  
---
86 %71 %
15:15
98 %
00:00
12,09 klux43,20 klux
11:30
2:25 Std 
12.
November
2,8 C-2,1 C
07:21
7,3 C
14:26
1032,6 hPa1028,2 hPa
00:01
1035,3 hPa
23:47
1,9 km/h
SO
13,6 km/h
12:26  
---
90 %80 %
15:11
97 %
23:47
11,1 klux31,3 klux
13:36
1:50 Std 
13.
November
3,4 C-1,8 C
23:37
10,2 C
15:47
1034,0 hPa1031,5 hPa
16:17
1035,6 hPa
08:27
2,0 km/h
O-SO
19,4 km/h
12:57  
---
88 %61 %
15:37
98 %
03:12
18,6 klux41,8 klux
12:02
5:15 Std 
14.
November
0,4 C-4,1 C
08:38
9,6 C
14:07
1028,4 hPa1025,2 hPa
14:17
1032,0 hPa
03:17
1,8 km/h
SO
14,2 km/h
14:47  
---
87 %62 %
14:17
97 %
10:22
23,1 klux40,9 klux
12:02
7:46 Std 
15.
November
0,0 C-4,8 C
07:23
9,6 C
14:08
1023,7 hPa1021,1 hPa
14:08
1025,8 hPa
01:03
1,4 km/h
SO
19,6 km/h
12:03  
---
85 %57 %
14:18
97 %
10:38
23,0 klux41,7 klux
11:48
7:45 Std 
16.
November
-1,4 C-5,3 C
07:04
6,0 C
14:04
1023,9 hPa1021,6 hPa
15:29
1025,1 hPa
07:24
1,0 km/h
O
12,5 km/h
14:39  
---
89 %70 %
14:59
96 %
10:29
21,0 klux37,5 klux
11:14
7:36 Std 
17.
November
1,3 C-2,7 C
00:00
6,0 C
15:25
1025,1 hPa1023,5 hPa
04:25
1026,2 hPa
18:10
1,0 km/h
W-SW
17,3 km/h
09:40  
---
93 %85 %
15:45
96 %
09:15
7,4 klux21,6 klux
15:10
35 Min 
18.
November
4,7 C2,3 C
04:56
7,5 C
14:16
1025,2 hPa1023,5 hPa
18:31
1026,1 hPa
04:56
0,1 km/h
W-NW
4,9 km/h
17:26  
---
20 Minuten
95 %90 %
15:11
97 %
08:06
6,3 klux14,0 klux
12:01
--- 
19.
November
6,1 C3,5 C
07:52
12,0 C
13:32
1022,2 hPa1020,8 hPa
13:32
1023,8 hPa
10:12
2,8 km/h
O-SO
27,1 km/h
13:57  
---
87 %60 %
13:52
99 %
05:47
18,6 klux39,7 klux
12:07
5:25 Std 
20.
November
5,1 C0,3 C
23:48
9,1 C
14:08
1022,3 hPa1021,1 hPa
14:08
1023,8 hPa
09:08
2,4 km/h
SO
13,5 km/h
15:43  
---
15 Minuten
86 %75 %
13:53
94 %
23:13
9,4 klux28,5 klux
13:58
40 Min 
21.
November
1,4 C-2,7 C
08:03
10,6 C
15:23
1020,0 hPa1016,8 hPa
15:23
1022,3 hPa
00:28
0,5 km/h
SO
9,6 km/h
15:38  
---
92 %72 %
15:43
98 %
10:08
21,1 klux37,7 klux
11:58
7:15 Std 
22.
November
0,8 C-3,2 C
07:59
8,8 C
14:34
1021,3 hPa1019,4 hPa
01:14
1024,5 hPa
23:45
0,1 km/h
SO
4,3 km/h
13:29  
---
94 %81 %
14:14
98 %
10:50
18,8 klux37,6 klux
12:14
5:25 Std 
23.
November
1,1 C-2,9 C
07:30
10,2 C
15:25
1028,4 hPa1024,5 hPa
00:15
1032,8 hPa
23:26
0,4 km/h
SO
8,7 km/h
22:20  
---
93 %76 %
15:25
98 %
09:30
21,5 klux38,0 klux
11:50
7:26 Std 
24.
November
0,2 C-1,8 C
03:46
4,0 C
14:51
1034,1 hPa1032,7 hPa
00:21
1036,0 hPa
08:31
0,6 km/h
W-NW
8,8 km/h
02:16  
---
96 %90 %
14:26
99 %
23:18
15,8 klux33,2 klux
12:31
4:35 Std 
25.
November
1,4 C-1,6 C
02:48
5,2 C
15:08
1029,6 hPa1026,9 hPa
15:28
1032,7 hPa
00:03
3,6 km/h
W-SW
23,4 km/h
13:43  
---
25 Minuten
94 %77 %
15:13
99 %
00:03
16,3 klux39,2 klux
11:43
4:15 Std 
26.
November
5,4 C3,6 C
08:24
7,2 C
13:29
1030,4 hPa1027,7 hPa
22:09
1033,2 hPa
08:54
15,5 km/h
W-SW
34,8 km/h
19:09  
---
89 %84 %
13:29
95 %
00:04
10,6 klux35,5 klux
12:29
1:35 Std 
27.
November
6,3 C3,8 C
07:50
8,6 C
16:10
1023,8 hPa1020,2 hPa
15:30
1027,8 hPa
00:00
19,8 km/h
W-SW
45,0 km/h
17:00  
---
86 %78 %
11:25
91 %
17:20
6,7 klux31,3 klux
10:10
1:20 Std 
28.
November
1,4 C-3,7 C
23:57
8,4 C
15:46
1029,0 hPa1025,8 hPa
23:27
1031,9 hPa
08:41
0,7 km/h
W-NW
9,2 km/h
14:26  
---
93 %77 %
15:46
98 %
09:51
20,2 klux38,1 klux
12:31
7:20 Std 
29.
November
0,9 C-4,2 C
00:22
6,0 C
23:38
1022,1 hPa1018,8 hPa
19:22
1026,0 hPa
00:22
3,4 km/h
W-SW
25,0 km/h
23:28  
---
97 %93 %
23:33
99 %
05:47
4,3 klux8,3 klux
10:52
--- 
30.
November
5,1 C-2,1 C
23:29
9,6 C
14:43
1026,4 hPa1019,4 hPa
00:43
1029,7 hPa
21:18
6,4 km/h
W-SW
25,4 km/h
01:13  
0,3 l/m
2:59 Stunden
88 %62 %
14:58
97 %
02:58
19,38 klux42,10 klux
11:58
6:46 Std 



November
2011

Temperatur

  

Luftdruck

  

Wind

  

Regen

  

Luftfeuchte

  

Helligkeit

Sonnen-
schein

Min

Max

Min

Max

Max

Max

Min

Max

Max

Max

4,2 C

-5,3 C

07:04 Uhr
16.11.2011

17,2 C

16:00 Uhr
06.11.2011

1022,7 hPa

1004,7 hPa

03:49 Uhr
04.11.2011

1036,0 hPa

08:31 Uhr
24.11.2011

3,5 km/h

O-SO

45,0 km/h

17:00 Uhr
27.11.2011

0,6 l/m

1:40 Stunden
03.11.2011

91 %

57 %

14:18 Uhr
15.11.2011

99 %

06:21 Uhr
01.11.2011

14,4 klux

64,8 klux

12:13 Uhr
03.11.2011

7:46 Std

am
14.11.2011

Gesamt

Gesamt

1,4 l/m

7 Tage
7:19 h

107:45 Std


Wetter-Diagramme November 2011     Heinzenberg / Taunus   
TemperaturLuftfeuchte
SolarstrahlungLuftdruck
HelligkeitSonnenschein
RegenmengeRegendauer
Wind-GeschwindigkeitWind-Richtung